Погода в Иване-Пусте

Украина / Тернопольская область     48°38′37″N   26°11′24″E
темп.,
°C
ветер,
м/с
пор.,
м/с
влажн.,
%
обл.,
%
осадки,
мм/ч
давл.,
гПа
погр.,
м
9 мая, вс
вс900:00+4зсз35830 0.0 102288
03:00+3з35894 0.0 102498
06:00+2зсз24905 0.0 102565
09:00+8з23654 0.0 1026430
12:00+13зсз25478 0.0 10251801
15:00+15з243950 0.0 10242056
18:00+16юз12427 0.0 10231772
21:00+10ююв34625 0.0 102457
10 мая, пн
пн1000:00+8ююв36635 0.0 1025106
03:00+7юв396824 0.0 1025172
06:00+6юв39705 0.0 1024179
09:00+11юв610595 0.0 1025455
12:00+16юв79505 0.0 1024996
15:00+18юв78495 0.0 10221247
18:00+18юв68575 0.0 10211132
21:00+12вюв49740 0.0 1022151
11 мая, вт
вт1100:00+10вюв38810 0.0 1022135
03:00+9вюв410780 0.0 1022192
06:00+7вюв39780 0.0 1022178
09:00+12вюв69630 0.0 1021462
12:00+17юв66520 0.0 10201131
15:00+18вюв56420 0.0 10181381
18:00+18вюв46460 0.0 10171162
21:00+13вюв337391 0.0 101629
12 мая, ср
ср1200:00+11в238622 0.0 101642
03:00+11в239258 0.0 101443
06:00+11в61094100 0.0 1014448
09:00+9в71185100 0.1 1014582
12:00+12юв586535 0.1 10141054
15:00+14ююв576168 0.1 10121181
18:00+12юв586965 0.0 1012897
21:00+10юв487750 0.0 1011418
13 мая, чт
чт1300:00+8вюв3983100 0.0 1010332
03:00+10юв61272100 0.0 1008703
06:00+10юв7147588 0.0 1007668
09:00+11юв81578100 0.0 1007731
12:00+14ююв91270100 0.0 10061178
15:00+10юв71294100 1.4 1007806
18:00+11ююв61193100 0.9 1007596
21:00+11юв4994100 1.0 1007346